BAW385 EBBR-EGLL

Flight info

Callsign BAW385
Flight time 0h 45m
Altitude 22000
Route HELEN L179 COA L608 LOGAN
Aircraft A21N/M-SDE2E3FGHIRWXY/LB1

Departure

Time 2026-05-07 20:44
Airport Brussels Airport (EBBR)

Arrival

Time 2026-05-07 21:30
Airport London Heathrow Airport (EGLL)
Time Latitude Longitude Altitude Speed Heading
2026-05-07 20:27 50.90165 4.49059 136 ft 0 kts 154°
2026-05-07 20:36 50.90185 4.49045 135 ft 4 kts 156°
2026-05-07 20:37 50.90206 4.49030 134 ft 2 kts 155°
2026-05-07 20:37 50.90228 4.49021 133 ft 4 kts 196°
2026-05-07 20:37 50.90246 4.49044 133 ft 4 kts 242°
2026-05-07 20:37 50.90252 4.49063 133 ft 1 kts 245°
2026-05-07 20:38 50.90252 4.49065 133 ft 0 kts 245°
2026-05-07 20:40 50.90251 4.49062 133 ft 1 kts 245°
2026-05-07 20:40 50.90251 4.49028 132 ft 5 kts 304°
2026-05-07 20:40 50.90296 4.49012 128 ft 9 kts 27°
2026-05-07 20:40 50.90338 4.49100 126 ft 11 kts 64°
2026-05-07 20:41 50.90375 4.49229 129 ft 14 kts 66°
2026-05-07 20:41 50.90420 4.49385 129 ft 17 kts 65°
2026-05-07 20:41 50.90469 4.49560 127 ft 17 kts 62°
2026-05-07 20:41 50.90580 4.49641 129 ft 19 kts 17°
2026-05-07 20:42 50.90718 4.49703 125 ft 22 kts 10°
2026-05-07 20:42 50.90874 4.49761 129 ft 23 kts 16°
2026-05-07 20:42 50.91005 4.49885 123 ft 20 kts 43°
2026-05-07 20:42 50.91105 4.49919 122 ft 14 kts 347°
2026-05-07 20:43 50.91113 4.49818 121 ft 12 kts 252°
2026-05-07 20:43 50.91073 4.49678 121 ft 16 kts 239°
2026-05-07 20:43 50.91011 4.49444 122 ft 52 kts 248°
2026-05-07 20:43 50.90748 4.48557 123 ft 126 kts 246°
2026-05-07 20:44 50.90280 4.46936 182 ft 187 kts 248°
2026-05-07 20:44 50.89766 4.45100 1277 ft 178 kts 246°
2026-05-07 20:44 50.89654 4.43090 2123 ft 196 kts 285°
2026-05-07 20:44 50.90468 4.41325 2989 ft 209 kts 326°
2026-05-07 20:45 50.91896 4.40619 3957 ft 229 kts 351°
2026-05-07 20:45 50.93452 4.39573 4819 ft 260 kts 321°
2026-05-07 20:45 50.94699 4.37431 6116 ft 268 kts 309°
2026-05-07 20:45 50.95912 4.35157 7502 ft 272 kts 310°
2026-05-07 20:46 50.97146 4.32906 8896 ft 277 kts 310°
2026-05-07 20:46 50.98440 4.30601 10290 ft 283 kts 311°
2026-05-07 20:46 50.99822 4.28172 11127 ft 310 kts 311°
2026-05-07 20:46 51.01325 4.25555 11982 ft 329 kts 311°
2026-05-07 20:47 51.02896 4.22837 13178 ft 337 kts 311°
2026-05-07 20:47 51.04499 4.20064 14377 ft 344 kts 311°
2026-05-07 20:47 51.06128 4.17249 15517 ft 349 kts 311°
2026-05-07 20:47 51.07787 4.14376 16663 ft 354 kts 311°
2026-05-07 20:48 51.09467 4.11468 17797 ft 359 kts 311°
2026-05-07 20:48 51.11169 4.08516 18846 ft 365 kts 311°
2026-05-07 20:48 51.12899 4.05516 19819 ft 369 kts 310°
2026-05-07 20:48 51.14645 4.02480 20767 ft 374 kts 310°
2026-05-07 20:49 51.16393 3.99438 21495 ft 377 kts 310°
2026-05-07 20:49 51.18171 3.96338 21876 ft 379 kts 310°
2026-05-07 20:49 51.19955 3.93227 22033 ft 380 kts 310°
2026-05-07 20:49 51.21702 3.90178 22073 ft 365 kts 310°
2026-05-07 20:50 51.23294 3.87060 22084 ft 361 kts 301°
2026-05-07 20:50 51.24365 3.83465 22090 ft 359 kts 289°
2026-05-07 20:50 51.25195 3.79713 22094 ft 359 kts 287°
2026-05-07 20:50 51.26002 3.75945 22092 ft 359 kts 287°
2026-05-07 20:51 51.26816 3.72178 22085 ft 358 kts 288°
2026-05-07 20:51 51.27636 3.68420 22095 ft 359 kts 288°
2026-05-07 20:51 51.28457 3.64662 22088 ft 357 kts 288°
2026-05-07 20:51 51.29276 3.60923 22091 ft 356 kts 288°
2026-05-07 20:52 51.30092 3.57188 22092 ft 355 kts 288°
2026-05-07 20:52 51.30906 3.53465 22081 ft 355 kts 288°
2026-05-07 20:52 51.31721 3.49735 22085 ft 355 kts 288°
2026-05-07 20:52 51.32245 3.47327 22085 ft 355 kts 288°
2026-05-07 20:53 51.32361 3.46792 22076 ft 355 kts 288°
2026-05-07 20:53 51.33172 3.43062 22089 ft 355 kts 288°
2026-05-07 20:54 51.33974 3.39370 22077 ft 355 kts 288°
2026-05-07 20:54 51.34791 3.35636 22080 ft 355 kts 288°
2026-05-07 20:54 51.35661 3.31934 22092 ft 355 kts 289°
2026-05-07 20:54 51.36535 3.28232 22082 ft 355 kts 289°
2026-05-07 20:55 51.37406 3.24529 22094 ft 355 kts 289°
2026-05-07 20:55 51.38282 3.20826 22092 ft 355 kts 289°
2026-05-07 20:55 51.39141 3.17119 22087 ft 355 kts 289°
2026-05-07 20:55 51.40015 3.13420 22096 ft 355 kts 289°
2026-05-07 20:56 51.40899 3.09724 22087 ft 355 kts 289°
2026-05-07 20:56 51.41784 3.06023 22097 ft 355 kts 289°
2026-05-07 20:56 51.42660 3.02328 22093 ft 355 kts 289°
2026-05-07 20:56 51.43505 2.98662 22085 ft 355 kts 289°
2026-05-07 20:57 51.44363 2.94950 22090 ft 355 kts 289°
2026-05-07 20:57 51.45232 2.91242 22088 ft 355 kts 289°
2026-05-07 20:57 51.46089 2.87529 22103 ft 355 kts 288°
2026-05-07 20:57 51.46947 2.83811 22091 ft 356 kts 289°
2026-05-07 20:58 51.47828 2.80102 22097 ft 356 kts 289°
2026-05-07 20:58 51.48707 2.76384 22098 ft 356 kts 289°
2026-05-07 20:58 51.49576 2.72668 22095 ft 355 kts 289°
2026-05-07 20:58 51.50439 2.68955 22090 ft 355 kts 289°
2026-05-07 20:59 51.51298 2.65246 22096 ft 355 kts 289°
2026-05-07 20:59 51.52155 2.61530 22101 ft 355 kts 289°
2026-05-07 20:59 51.53012 2.57814 22099 ft 355 kts 289°
2026-05-07 20:59 51.53867 2.54094 22094 ft 355 kts 289°
2026-05-07 21:00 51.54712 2.50414 22095 ft 355 kts 289°
2026-05-07 21:00 51.55564 2.46699 22103 ft 355 kts 289°
2026-05-07 21:00 51.56415 2.42978 22104 ft 355 kts 288°
2026-05-07 21:00 51.57265 2.39249 22090 ft 355 kts 288°
2026-05-07 21:01 51.58114 2.35521 22091 ft 355 kts 288°
2026-05-07 21:01 51.58960 2.31794 22099 ft 355 kts 288°
2026-05-07 21:01 51.59812 2.28056 22095 ft 355 kts 288°
2026-05-07 21:01 51.60661 2.24324 22098 ft 355 kts 288°
2026-05-07 21:02 51.61509 2.20590 22097 ft 355 kts 288°
2026-05-07 21:02 51.62355 2.16859 22112 ft 355 kts 288°
2026-05-07 21:02 51.63202 2.13119 22108 ft 355 kts 288°
2026-05-07 21:02 51.64050 2.09377 22104 ft 355 kts 288°
2026-05-07 21:03 51.64893 2.05631 22112 ft 355 kts 288°
2026-05-07 21:03 51.65720 2.01938 22098 ft 355 kts 288°
2026-05-07 21:03 51.66555 1.98195 22097 ft 355 kts 288°
2026-05-07 21:03 51.67392 1.94451 22099 ft 355 kts 288°
2026-05-07 21:04 51.68230 1.90706 22104 ft 356 kts 288°
2026-05-07 21:04 51.69067 1.86947 22112 ft 356 kts 288°
2026-05-07 21:04 51.69905 1.83183 22108 ft 356 kts 288°
2026-05-07 21:04 51.70458 1.80690 22108 ft 356 kts 288°
2026-05-07 21:05 51.71291 1.76925 22108 ft 356 kts 288°
2026-05-07 21:05 51.72125 1.73155 22108 ft 357 kts 288°
2026-05-07 21:05 51.72956 1.69388 22109 ft 356 kts 288°
2026-05-07 21:05 51.73786 1.65617 22109 ft 356 kts 288°
2026-05-07 21:06 51.74500 1.61788 22103 ft 355 kts 279°
2026-05-07 21:06 51.74594 1.57825 22108 ft 353 kts 265°
2026-05-07 21:06 51.74351 1.53882 22116 ft 353 kts 263°
2026-05-07 21:06 51.74080 1.49985 21927 ft 343 kts 263°
2026-05-07 21:07 51.73822 1.46195 21457 ft 337 kts 263°
2026-05-07 21:07 51.73574 1.42468 20986 ft 332 kts 263°
2026-05-07 21:07 51.73331 1.38778 20550 ft 329 kts 263°
2026-05-07 21:07 51.73093 1.35162 20154 ft 327 kts 263°
2026-05-07 21:08 51.72853 1.31532 19767 ft 324 kts 263°
2026-05-07 21:08 51.72614 1.27926 19390 ft 322 kts 263°
2026-05-07 21:08 51.72376 1.24352 19015 ft 321 kts 263°
2026-05-07 21:08 51.72138 1.20767 18666 ft 320 kts 263°
2026-05-07 21:09 51.71900 1.17208 18314 ft 319 kts 263°
2026-05-07 21:09 51.71661 1.13658 17931 ft 318 kts 263°
2026-05-07 21:09 51.71424 1.10121 17564 ft 316 kts 263°
2026-05-07 21:09 51.71187 1.06605 17199 ft 315 kts 262°
2026-05-07 21:10 51.70948 1.03101 16841 ft 314 kts 262°
2026-05-07 21:10 51.70709 0.99613 16515 ft 312 kts 262°
2026-05-07 21:10 51.70469 0.96141 16211 ft 313 kts 262°
2026-05-07 21:10 51.70225 0.92632 16090 ft 315 kts 262°
2026-05-07 21:11 51.69981 0.89123 16083 ft 315 kts 262°
2026-05-07 21:11 51.69737 0.85614 16095 ft 315 kts 262°
2026-05-07 21:11 51.69246 0.78631 15696 ft 311 kts 262°
2026-05-07 21:12 51.68999 0.75131 14843 ft 320 kts 262°
2026-05-07 21:12 51.68742 0.71518 14016 ft 327 kts 262°
2026-05-07 21:12 51.68489 0.67917 13340 ft 327 kts 262°
2026-05-07 21:12 51.68227 0.64290 12729 ft 324 kts 262°
2026-05-07 21:13 51.67970 0.60704 12139 ft 321 kts 262°
2026-05-07 21:13 51.67713 0.57143 11550 ft 319 kts 262°
2026-05-07 21:13 51.67457 0.53615 11028 ft 315 kts 262°
2026-05-07 21:13 51.67205 0.50155 10740 ft 305 kts 262°
2026-05-07 21:14 51.66964 0.46840 10545 ft 292 kts 262°
2026-05-07 21:14 51.66730 0.43652 10290 ft 282 kts 262°
2026-05-07 21:14 51.66499 0.40510 9775 ft 283 kts 262°
2026-05-07 21:14 51.66269 0.37391 9370 ft 278 kts 262°
2026-05-07 21:15 51.66040 0.34301 8858 ft 278 kts 262°
2026-05-07 21:15 51.65810 0.31216 8375 ft 277 kts 262°
2026-05-07 21:15 51.65579 0.28133 7871 ft 278 kts 263°
2026-05-07 21:15 51.65348 0.25058 7451 ft 276 kts 263°
2026-05-07 21:16 51.65123 0.22049 7152 ft 270 kts 263°
2026-05-07 21:16 51.64906 0.19124 7079 ft 255 kts 263°
2026-05-07 21:16 51.64701 0.16367 7074 ft 244 kts 262°
2026-05-07 21:16 51.64510 0.13666 7084 ft 243 kts 264°
2026-05-07 21:17 51.64365 0.10955 7094 ft 243 kts 264°
2026-05-07 21:17 51.64216 0.08240 7104 ft 243 kts 264°
2026-05-07 21:17 51.64070 0.05532 7106 ft 243 kts 264°
2026-05-07 21:17 51.63927 0.02819 7107 ft 244 kts 264°
2026-05-07 21:18 51.63776 0.00102 7115 ft 244 kts 264°
2026-05-07 21:18 51.63630 -0.02611 7086 ft 242 kts 265°
2026-05-07 21:18 51.63473 -0.05304 7085 ft 241 kts 264°
2026-05-07 21:18 51.63328 -0.07997 7084 ft 242 kts 265°
2026-05-07 21:19 51.63178 -0.10690 7084 ft 241 kts 265°
2026-05-07 21:19 51.63028 -0.13376 7083 ft 241 kts 264°
2026-05-07 21:19 51.62873 -0.16058 7082 ft 241 kts 265°
2026-05-07 21:19 51.62726 -0.18758 7083 ft 242 kts 264°
2026-05-07 21:20 51.62575 -0.21451 7069 ft 242 kts 264°
2026-05-07 21:20 51.62421 -0.24111 7035 ft 242 kts 264°
2026-05-07 21:20 51.62263 -0.26809 7015 ft 243 kts 264°
2026-05-07 21:20 51.62111 -0.29510 7006 ft 241 kts 264°
2026-05-07 21:21 51.61960 -0.32180 6852 ft 237 kts 264°
2026-05-07 21:21 51.61802 -0.34829 6475 ft 239 kts 264°
2026-05-07 21:21 51.61648 -0.37501 6080 ft 240 kts 264°
2026-05-07 21:21 51.61489 -0.40188 5692 ft 241 kts 264°
2026-05-07 21:22 51.61323 -0.42873 5334 ft 241 kts 263°
2026-05-07 21:22 51.60940 -0.45496 5035 ft 241 kts 252°
2026-05-07 21:22 51.60421 -0.48058 4979 ft 241 kts 251°
2026-05-07 21:22 51.59892 -0.50618 4979 ft 241 kts 251°
2026-05-07 21:23 51.59371 -0.53138 4989 ft 241 kts 251°
2026-05-07 21:23 51.58844 -0.55694 5007 ft 241 kts 251°
2026-05-07 21:23 51.58317 -0.58246 5016 ft 241 kts 251°
2026-05-07 21:23 51.57725 -0.60726 4827 ft 236 kts 243°
2026-05-07 21:24 51.56972 -0.63072 4457 ft 236 kts 241°
2026-05-07 21:24 51.56198 -0.65410 4094 ft 237 kts 240°
2026-05-07 21:24 51.55423 -0.67746 3765 ft 237 kts 240°
2026-05-07 21:24 51.54618 -0.70040 3449 ft 234 kts 232°
2026-05-07 21:25 51.53408 -0.71725 3109 ft 230 kts 205°
2026-05-07 21:25 51.51936 -0.72574 2878 ft 220 kts 189°
2026-05-07 21:25 51.50464 -0.72491 2708 ft 207 kts 168°
2026-05-07 21:25 51.49121 -0.71886 2502 ft 201 kts 151°
2026-05-07 21:26 51.48131 -0.70307 2466 ft 201 kts 119°
2026-05-07 21:26 51.47718 -0.68227 2492 ft 186 kts 100°
2026-05-07 21:26 51.47672 -0.66234 2343 ft 174 kts 89°
2026-05-07 21:26 51.47692 -0.64350 2165 ft 157 kts 91°
2026-05-07 21:27 51.47701 -0.62749 1957 ft 139 kts 92°
2026-05-07 21:27 51.47707 -0.61201 1747 ft 138 kts 92°
2026-05-07 21:27 51.47713 -0.59681 1547 ft 138 kts 92°
2026-05-07 21:27 51.47718 -0.58140 1349 ft 138 kts 92°
2026-05-07 21:28 51.47723 -0.56602 1158 ft 138 kts 92°
2026-05-07 21:28 51.47729 -0.55071 958 ft 137 kts 92°
2026-05-07 21:28 51.47734 -0.53546 763 ft 136 kts 91°
2026-05-07 21:28 51.47739 -0.52046 575 ft 134 kts 91°
2026-05-07 21:29 51.47745 -0.50556 380 ft 133 kts 91°
2026-05-07 21:29 51.47750 -0.49071 198 ft 133 kts 91°
2026-05-07 21:29 51.47753 -0.47604 102 ft 125 kts 91°
2026-05-07 21:29 51.47756 -0.46377 95 ft 85 kts 89°
2026-05-07 21:30 51.47761 -0.45751 89 ft 33 kts 89°
2026-05-07 21:30 51.47692 -0.45456 91 ft 25 kts 172°
2026-05-07 21:30 51.47587 -0.45586 91 ft 23 kts 272°
2026-05-07 21:30 51.47593 -0.45843 91 ft 23 kts 272°
2026-05-07 21:31 51.47595 -0.46110 95 ft 26 kts 270°
2026-05-07 21:31 51.47592 -0.46410 92 ft 28 kts 269°
2026-05-07 21:31 51.47591 -0.46718 92 ft 28 kts 269°
2026-05-07 21:31 51.47578 -0.47042 92 ft 24 kts 271°
2026-05-07 21:32 51.47580 -0.47329 95 ft 27 kts 271°
2026-05-07 21:32 51.47580 -0.47644 94 ft 29 kts 270°
2026-05-07 21:32 51.47578 -0.47943 95 ft 27 kts 270°
2026-05-07 21:32 51.47577 -0.48258 92 ft 28 kts 270°
2026-05-07 21:33 51.47574 -0.48549 92 ft 27 kts 270°
2026-05-07 21:33 51.47574 -0.48828 92 ft 21 kts 271°
2026-05-07 21:33 51.47526 -0.48948 93 ft 11 kts 172°
2026-05-07 21:33 51.47481 -0.48835 95 ft 15 kts 91°
2026-05-07 21:34 51.47441 -0.48755 92 ft 8 kts 183°
2026-05-07 21:34 51.47400 -0.48757 92 ft 1 kts 180°
2026-05-07 21:34 51.47397 -0.48757 92 ft 0 kts 181°